Home > Time Zones > World Clock > Weather > Iran > Rasht > Past weeks

Flag for Iran Weather past 2 weeks in Rasht, Iran

Now
95 °F

Sunny.


Feels Like: 110 °F
Forecast: 81 / 93 °F
Wind: 7 mph from Northwest

Location: Rasht Airport

Current Time: Aug 20, 2014 at 3:55:12 PM

Latest Report: Aug 20, 2014 at 3:30 PM


Visibility: 10 mi

Pressure: 29.80 "Hg

Humidity: 56%

Dew point: 77 °F

Location of RashtLocation

Historic Weather in Rasht — Graph

°F

Rasht temperature yesterday

Maximum temperature yesterday: 95 °F (at 12:30 PM)
Minimum temperature yesterday: 79 °F (at 1:30 AM)
Average temperature yesterday: 86 °F

Past Weeks' High & Low Weather Summary

 TemperatureHumidityPressure
High102 °F (Aug 8, 8:00 PM)100% (Aug 16, 6:30 AM)29.98 "Hg (Aug 16, 6:30 AM)
Low68 °F (Aug 6, 6:30 AM)28% (Aug 8, 1:30 PM)29.50 "Hg (Aug 5, 4:30 PM)
Average85 °F58%29.74 "Hg
* Reported Aug 5 2:30 PM — Aug 20 3:00 PM, Rasht, Weather by CustomWeather, © 2014

Note: Actual official high and low records may vary slightly from our data, if they occured in-between our weather recording intervals... More about our weather records

Advertising

Rasht weather history for previous 24 hours

 ConditionsComfort  
Time TempWeatherWind HumidityBarometerVisibility
3:00 PM
Aug 20
97 °FSunny.7 mph53%29.80 "Hg10 mi
2:30 PM97 °FSunny.9 mph53%29.80 "Hg10 mi
2:00 PM93 °FSunny.No wind56%29.86 "Hg5 mi
1:30 PM93 °FSunny.No wind56%29.86 "Hg5 mi
1:00 PM93 °FSunny.No wind63%29.86 "Hg4 mi
12:30 PM93 °FSunny.No wind63%29.86 "Hg4 mi
12:00 PM91 °FScattered clouds.No wind80%29.89 "Hg4 mi
11:30 AM91 °FScattered clouds.No wind80%29.89 "Hg4 mi
11:00 AM84 °FScattered clouds.No wind84%29.89 "Hg4 mi
10:30 AM84 °FScattered clouds.No wind84%29.89 "Hg4 mi
10:00 AM82 °FFog.5 mph94%29.89 "Hg3 mi
9:30 AM81 °FFog.2 mph94%29.89 "Hg2 mi
9:00 AM79 °FFog.2 mph100%29.86 "Hg1 mi
8:30 AM79 °FFog.2 mph100%29.86 "Hg0 mi
8:00 AM77 °FFog.2 mph100%29.80 "Hg0 mi
7:30 AM77 °FFog.No wind100%29.80 "Hg1 mi
7:00 AM77 °FFog.2 mph100%29.80 "Hg0 mi
6:30 AM77 °FFog.No wind100%29.80 "Hg0 mi
6:00 AM79 °FFog.No wind100%29.80 "Hg0 mi
11:30 PM
Aug 19
81 °FClear.5 mph94%29.80 "Hg10 mi
9:30 PM81 °FClear.No wind94%29.80 "Hg10 mi
8:30 PM84 °FSunny.5 mph84%29.77 "Hg10 mi
7:30 PM88 °FSunny.5 mph75%29.74 "Hg10 mi
6:30 PM90 °FSunny.5 mph71%29.74 "Hg10 mi
6:00 PM93 °FSunny.7 mph63%29.74 "Hg10 mi
5:30 PM93 °FSunny.7 mph63%29.74 "Hg10 mi
4:30 PM93 °FSunny.7 mph63%29.74 "Hg10 mi
3:30 PM93 °FSunny.7 mph59%29.77 "Hg10 mi
3:00 PM93 °FSunny.7 mph59%29.77 "Hg10 mi
Weather by CustomWeather, © 2014

See weather overviewHow to use our weather pages